Regional Weather Roundup
Issued by NWS Portland, ME

Home | Current Version | Previous Version | Text Only | Print | Product List | Glossary On
Versions: 1 2 3 4 5 6 7 8 9 10 11 12 13 14 15 16 17 18 19 20 21 22 23 24 25 26 27 28 29 30 31 32 33 34 35 36 37 38 39 40 41 42 43 44 45 46 47 48 49 50
000
ASUS41 KGYX 242110
RWRGYX
WEATHER ROUNDUP FOR MAINE AND NEW HAMPSHIRE
NATIONAL WEATHER SERVICE GRAY ME
400 PM EST MON NOV 24 2014

MEZ002-005-006-010-012-015-018-020-021-024-026-027-029-242200-
MAINE

CITY           SKY/WX    TMP DP  RH WIND       PRES   REMARKS
PORTLAND       FOG       58  57  97 S12       29.55F VSB 1/2
SANFORD        CLOUDY    61  57  88 S6        29.54F
BAR HARBOR     CLOUDY    57  57 100 S25G31    29.62F
WISCASSET      CLOUDY    58  57  97 S8        29.58F FOG
ROCKLAND       CLOUDY    55  54  94 S15G24    29.59F
FRYEBURG       CLOUDY    48  47  96 CALM      29.52S FOG
LEWISTONAUBURN CLOUDY    57  55  94 S9        29.53F VSB 1/2
AUGUSTA        FOG       57  56  96 S12G20    29.56F VSB 1/4
WATERVILLE     CLOUDY    57  55  94 S8G21     29.52F
BANGOR         LGT RAIN  57  56  96 S18       29.57F FOG
GREENVILLE       N/A     54  54 100 S7        29.48F
MILLINOCKET    CLOUDY    56  55  97 S8        29.54F FOG
HOULTON        CLOUDY    54  52  93 S9G18     29.55F FOG
PRESQUE ISLE   CLOUDY    48  45  87 S12G18    29.53F
FRENCHVILLE    LGT RAIN  45  44  97 S17G28    29.48F FOG
CARIBOU        CLOUDY    49  47  93 S15G25    29.51F
$$

NHZ002-005-008-009-011-012-014-242200-
NEW HAMPSHIRE

CITY           SKY/WX    TMP DP  RH WIND       PRES   REMARKS
PORTSMOUTH     MOCLDY    64  61  89 S12       29.53F
ROCHESTER      CLOUDY    64  60  87 S8G17     29.52F
NASHUA         PTCLDY    65  60  83 S6G21     29.55F
MANCHESTER     PTCLDY    65  58  78 S20G25    29.51F
CONCORD        CLOUDY    64  58  80 S9        29.52S
LACONIA        CLOUDY    63  57  82 SW8G16    29.50S
PLYMOUTH       FOG       49  49 100 CALM      29.50S VSB 1/4
BERLIN         CLOUDY    61  52  72 S9        29.46F
WHITEFIELD     CLOUDY    64  52  64 VRB6      29.46S
JAFFREY        MOCLDY    61  56  83 S13G26    29.54F
LEBANON        MOCLDY    63  57  81 S15G24    29.46F
MT WASHINGTON  FOG       41  41 100 SW36G56     N/A  VSB 1/16
$$

VTZ005-007-008-242200-
VERMONT

CITY           SKY/WX    TMP DP  RH WIND       PRES   REMARKS
ST JOHNSBURY     N/A     62  56  80 MISG      29.42F
MONTPELIER     CLEAR     58  55  90 S13       29.46S
BURLINGTON     PTCLDY    66  56  70 S14G28    29.38R
$$

MAZ007-012-024-CTZ003-RIZ002-NYZ038-NYZ072-242200-
SOUTHERN NEW ENGLAND AND NY

CITY           SKY/WX    TMP DP  RH WIND       PRES   REMARKS
BOSTON         MOCLDY    64  60  87 S20G29    29.59F
WORCESTER      CLOUDY    60  57  89 S18G26    29.58F
NANTUCKET      CLOUDY    58  56  93 S20       29.73F FOG
PROVIDENCE     CLOUDY    62  60  93 S22G31    29.64F
HARTFORD       CLOUDY    63  58  83 S15G29    29.56F
ALBANY         PTCLDY    67  57  70 S12G22    29.47R
NEW YORK CITY  PTCLDY    61  55  81 S9        29.59R
$$

ANZ081-ANZ082-ANZ150-NHZ014-MEZ023>029-242200-
COASTAL MARINE OBSERVATIONS

STATION/POSITION TIME  TEMP    WIND        PRES    WAVE
                       AIR SEA DIR/SP/G            HT/PER
                 (UTC) (F)     (DEG/KT/KT) (MB)    (FT/S)
MOUNT DESERT ROC 2100   56                 1003.7F
MATINICUS ROCK   2100          190/ 29/ 32 1002.6F
PORTLAND WX BUOY 2050   55 51  180/ 19/ 25 1000.3F   8/ 8
WELLS            2000   56 47  190/ 11/ 14 1000.3F
ISLE OF SHOALS   2100   60     190/ 27/ 29 1000.3F
JEFFREYS LEDGE   2021      51                N/A     8/ 7
CASHES LEDGE BUO 2050   56 51  190/ 27/ 33 1002.6F  11/ 8
$$

.............KEY..............
   WCI - WIND CHILL
   TC  - TEMPERATURE IN CELSIUS
   VSB - VISIBILITY IN MILES
   HX  - HEAT INDEX
   FAIR- INDICATES FEW OR NO CLOUDS BELOW 12,000 FT, WITH NO
         SIGNIFICANT WEATHER AND/OR OBSTRUCTIONS TO VISIBILITY.




USA.gov is the U.S. government's official web portal to all federal, state and local government web resources and services.